Simultaneous Nadir Overpasses (SNOs) Predictions

Prediction of SNOs between GOES-16 and NPP Satellite Orbit:

Table of predicted SNOs for the next 14.0 days since TLE Epoch: 8/3/2024
Index Date Time (GOES-16) GOES-16 Lat,Lon NPP Lat,Lon Distance(km) Time Diff (sec)
1 08/03/2024 18:14:37 -0.05, -75.20 0.50, -72.85 268.23 80
2 08/05/2024 06:39:05 0.05, -75.21 0.68, -78.13 332.24 80
3 08/06/2024 06:17:41 0.05, -75.22 -0.31, -73.59 184.70 80
4 08/07/2024 18:39:38 -0.05, -75.24 -0.89, -78.90 418.27 80
5 08/08/2024 18:23:35 -0.05, -75.25 0.16, -74.38 99.20 80
6 08/10/2024 06:45:23 0.04, -75.27 1.01, -79.65 499.83 80
7 08/11/2024 06:23:58 0.04, -75.28 0.01, -75.12 17.83 80
8 08/13/2024 18:27:11 -0.04, -75.32 -0.20, -75.90 66.74 80
9 08/14/2024 18:11:08 -0.03, -75.34 0.87, -71.38 451.11 80
10 08/16/2024 06:32:56 0.02, -75.36 0.29, -76.66 147.73 80
